{"data":{"norad_id":63397,"intl_designator":"2025-064A","name":"TJS-16","alt_names":[],"object_type":"PAYLOAD","status":"ACTIVE","operator":null,"country":"PRC","launch_date":"2025-03-29","launch_site_code":"WSC","launch_vehicle":null,"mission":null,"orbit_class":"UNKNOWN","rcs_meters":null,"size_class":null,"mass_kg":null,"dimensions":null,"purposes":["comms"],"wikipedia_slug":null,"has_3d_model":false,"image_url":null,"decayed_at":null,"tle_current":{"epoch":"2026-09-19T19:52:29.028000Z","epoch_age_seconds":83842,"freshness":"FRESH","line1":"1 63397U 25064A   26262.82811375 -.00000108  00000+0  00000+0 0  9996","line2":"2 63397   1.3350  80.6332 0001693 248.0663 128.8509  1.00273439  5346","mean_motion":1.00273439,"eccentricity":0.0001693,"inclination_deg":1.335,"raan_deg":80.6332,"arg_perigee_deg":248.0663,"mean_anomaly_deg":128.8509,"bstar":0,"rev_number":534,"period_min":1436.0732157596,"perigee_km":35778.992880701,"apogee_km":35793.269701944,"semimajor_km":42164.268291322,"source":"CELESTRAK","updated_at":"2026-09-20T09:00:35.343285Z"}}}